User: anonymous   Login
Location: Unspecified
(0.0000°N, 0.0000°E)
Time: 14:09:54
(UTC+00:00)
Language:

deb Explorer IX - Orbit

View from above orbital plane
View from above orbital plane
View from above satellite
View from above satellite

Ground track
Ground track

The orbit data is extracted from the following two-line orbital elements,

1 00085U 61004C   17020.64493767  .00003133  00000-0  71167-3 0  9995
2 00085  38.7739 229.3500 0400634 155.8433 206.1674 14.17199179754347
Epoch (UTC): 20 January 2017 15:28:42
Eccentricity: 0.0400634
inclination: 38.7739°
perigee height: 546 km
apogee height: 1124 km
right ascension of ascending node: 229.3500°
argument of perigee: 155.8433°
revolutions per day: 14.17199179
mean anomaly at epoch: 206.1674°
orbit number at epoch: 75434

The dashed part of the orbit path shows where the satellite is in the earth's shadow,  

DLR